Other Public Products
Issued by NWS Charleston, SC

Current Version | Previous Version | Text Only | Print | Product List | Glossary Off
Versions: 1 2 3 4 5 6 7 8 9 10 11 12 13 14 15 16 17 18 19 20 21 22 23 24 25 26 27 28 29 30 31 32 33 34 35 36 37 38 39 40 41 42 43 44 45 46 47 48 49 50
000 FPUS82 KCHS 230327 OPUCHS TEST...KCHS/KSAV Gateway Observations...TEST National Weather Service Charleston SC 1100 PM EDT FRI SEP 22 2017 NOTE: "fair" indicates few or no clouds below 12,000 feet with no significant weather and/or obstructions to visibility. SCZ050-WAZ558-NCZ071-TXZ119-213-PAZ071-DCZ001-FLZ074-172-MI076- NYZ176-178-MAZ016-IL014-TNZ027-NJZ106-GAZ044-MD014-230400- ...Gateway Observations for Charleston International... CITY SKY/WX TMP DP RH WIND PRES REMARKS Chas Airport CLEAR 74 72 93 NE3 30.00S Seattle MOCLDY 63 46 54 CALM 30.04R Charlotte PTCLDY 73 67 81 CALM 30.05R Dallas DFW CLEAR 85 66 53 SE10 29.90R Dallas Love CLEAR 84 65 52 SE13 29.91R Philladelphia MOCLDY 74 54 49 N8 30.00R Wash National CLOUDY 74 68 81 CALM 30.02R Baltimore CLOUDY 66 64 93 W3 30.01R Miami CLOUDY 79 79 100 NE7 29.87R Detroit PTCLDY 71 64 78 CALM 30.10R Newark PTCLDY 75 51 43 N16 29.98R Laguardia PTCLDY 73 57 57 N10 29.97R J F K PTCLDY 73 55 53 N18G25 29.97R Boston Logan DRIZZLE 62 61 96 N20 30.00S FOG Ft. Lauderdale MOCLDY 77 77 100 E12 29.85F Chicago O`Hare CLEAR 81 66 60 SE6 30.03R Chicago Midway CLEAR 84 67 56 SE8 30.03S Houston Bush CLEAR 79 73 82 SE8 29.92R Houston Hobby PTCLDY 80 73 79 CALM 29.91S Nashville PTCLDY 75 68 78 N3 30.03S Atlanta PTCLDY 75 68 78 CALM 30.04R $$ GAZ044-118-TXZ119-213-NCZ071-DCZ001-MDZ014-506-PAZ021-071-NJZ106- NYZ176-178-MAZ106-OHZ011-021-055-MIZ076-KYZ091-ILZ014-INZ047- MNZ060-ONZ431-230400- ...Gateway Observations for Savannah International... CITY SKY/WX TMP DP RH WIND PRES REMARKS Savannah Arpt CLEAR 75 73 93 CALM 30.00S Atlanta PTCLDY 75 68 78 CALM 30.04R Charlotte PTCLDY 73 67 81 CALM 30.05R Dallas DFW CLEAR 85 66 53 SE10 29.90R Houston Bush CLEAR 79 73 82 SE8 29.92R Wash National CLOUDY 74 68 81 CALM 30.02R Wash Dulles PTCLDY 64 63 96 CALM 30.04R Baltimore CLOUDY 66 64 93 W3 30.01R Philadelphia MOCLDY 74 54 49 N8 30.00R Newark PTCLDY 75 51 43 N16 29.98R Laguardia PTCLDY 73 57 57 N10 29.97R J F K PTCLDY 73 55 53 N18G25 29.97R Boston DRIZZLE 62 61 96 N20 30.00S FOG Pittsburg MOCLDY 69 59 70 CALM 30.10S Akron MOCLDY 71 56 58 NE6 30.11S Cleveland CLEAR 72 61 68 CALM 30.11R Cincinnati CLEAR 74 68 81 CALM 30.07S Columbus CLEAR 69 66 90 CALM 30.07S Detroit PTCLDY 71 64 78 CALM 30.10R Chicago O`Hare CLEAR 81 66 60 SE6 30.03R Minneapolis MOCLDY 85 69 58 S17G24 29.84R Indianapolis PTCLDY 74 65 73 W5 30.06S Toronto Canada PTCLDY 72 48 43 VRB2 30.11R $$

USA.gov is the U.S. government's official web portal to all federal, state and local government web resources and services.